Cartersville, GA

9:19 PM EDT on April 23, 2018 (GMT -0400)
Cartersville

Weather History for KVPC - April, 2014

Change the Weather History Date:

Sunday, April 20, 2014

  Actual Average Record
Temperature  
Mean Temperature 60 °F 60 °F  
Max Temperature 76 °F 74 °F 88 °F (2002)
Min Temperature 44 °F 47 °F 32 °F (2018)
Degree Days  
Heating Degree Days 5 6  
Month to date heating degree days 146 154  
Since 1 July heating degree days 3410 3182  
Cooling Degree Days 0 1  
Month to date cooling degree days 4 9  
Year to date cooling degree days 4 13  
Growing Degree Days 10 (Base 50)    
Moisture  
Dew Point 45 °F    
Average Humidity 63    
Maximum Humidity 93    
Minimum Humidity 33    
Precipitation  
Precipitation 0.00 in 0.14 in 1.22 in (1951)
Month to date precipitation 5.40 2.43  
Year to date precipitation 15.83 16.65  
Snow  
Snow 0.00 in - - ()
Month to date snowfall 0.0  
Since 1 July snowfall 0.0  
Snow Depth -    
Sea Level Pressure  
Sea Level Pressure 30.17 in    
Wind  
Wind Speed 3 mph (East)    
Max Wind Speed 14 mph    
Max Gust Speed 20 mph    
Visibility 10 miles    
Events      
T = Trace of Precipitation, MM = Missing Value Source: NWS Daily Summary

Daily Weather History Graph

Daily Weather History Graph

Search for Another Location

Airport or City:

Astronomy

Apr. 20, 2014 Rise Set
Actual Time 7:02 AM EDT 8:14 PM EDT
Civil Twilight 6:36 AM EDT 8:40 PM EDT
Nautical Twilight 6:05 AM EDT 9:11 PM EDT
Astronomical Twilight 5:33 AM EDT 9:44 PM EDT
Moon 12:48 AM EDT (4/20) 11:27 AM EDT (4/20)
Length of Visible Light 14h 04m
Length of Day
13h 12m
Waning Gibbous, 69% of the Moon is Illuminated
Apr 20
Waning Gibbous
Apr 22
Last Quarter
Apr 29
New
May 6
First Quarter
May 14
Full

Hourly Weather History & Observations

Time (EDT) Temp. Dew Point Humidity Pressure Visibility Wind Dir Wind Speed Gust Speed Precip Events Conditions
12:53 AM 54.0 °F 46.0 °F 75% 30.15 in 10.0 mi Variable 3.5 mph - N/A   Mostly Cloudy
1:53 AM 50.0 °F 45.0 °F 83% 30.17 in 10.0 mi Calm Calm - N/A   Clear
2:53 AM 50.0 °F 44.1 °F 80% 30.16 in 10.0 mi Calm Calm - N/A   Clear
3:53 AM 46.9 °F 44.1 °F 90% 30.16 in 10.0 mi Calm Calm - N/A   Clear
4:53 AM 46.0 °F 44.1 °F 93% 30.18 in 10.0 mi Calm Calm - N/A   Clear
5:53 AM 44.1 °F 43.0 °F 96% 30.20 in 10.0 mi Calm Calm - N/A   Partly Cloudy
6:53 AM 46.9 °F 45.0 °F 93% 30.21 in 10.0 mi Calm Calm - N/A   Overcast
7:53 AM 48.9 °F 46.0 °F 90% 30.23 in 10.0 mi Calm Calm - N/A   Overcast
8:53 AM 57.0 °F 44.1 °F 62% 30.24 in 10.0 mi NE 3.5 mph - N/A   Clear
9:53 AM 62.1 °F 41.0 °F 46% 30.24 in 10.0 mi ENE 9.2 mph - N/A   Clear
10:53 AM 64.0 °F 41.0 °F 43% 30.25 in 10.0 mi ENE 11.5 mph 18.4 mph N/A   Clear
11:53 AM 66.0 °F 41.0 °F 40% 30.23 in 10.0 mi ENE 6.9 mph - N/A   Clear
12:53 PM 68.0 °F 42.1 °F 39% 30.21 in 10.0 mi ESE 10.4 mph - N/A   Clear
1:53 PM 71.1 °F 44.1 °F 38% 30.18 in 10.0 mi Variable 4.6 mph - N/A   Clear
2:53 PM 72.0 °F 43.0 °F 35% 30.17 in 10.0 mi Calm Calm - N/A   Clear
3:53 PM 73.9 °F 45.0 °F 35% 30.14 in 10.0 mi North 5.8 mph - N/A   Clear
4:53 PM 75.9 °F 44.1 °F 32% 30.12 in 10.0 mi Calm Calm - N/A   Clear
5:53 PM 73.9 °F 46.0 °F 37% 30.11 in 10.0 mi SSE 3.5 mph - N/A   Clear
6:53 PM 73.0 °F 48.0 °F 41% 30.11 in 10.0 mi SE 4.6 mph - N/A   Clear
7:53 PM 64.0 °F 52.0 °F 65% 30.11 in 10.0 mi Calm Calm - N/A   Clear
8:53 PM 57.9 °F 51.1 °F 78% 30.12 in 10.0 mi Calm Calm - N/A   Clear
9:53 PM 55.0 °F 50.0 °F 83% 30.13 in 10.0 mi ESE 3.5 mph - N/A   Clear
10:53 PM 53.1 °F 48.0 °F 83% 30.15 in 10.0 mi Calm Calm - N/A   Clear
11:53 PM 51.1 °F 46.9 °F 86% 30.17 in 10.0 mi Calm Calm - N/A   Clear